Location: Cudham
(51.3000°N, 0.0667°E)
Time: 20:58:07
(UTC+00:00)

Cosmos 1975 - Pass Details

Date: 19 May 2025
Orbit: 487 x 505 km, 82.5° (Epoch: 21 June)

Event Time Altitude Azimuth Distance (km) Brightness Sun altitude
Rises 22:44:19 0° 350° (N) 2,578 8.0 -17.0°
Reaches altitude 10° 22:46:27 10° 352° (N) 1,689 6.6 -17.1°
Maximum altitude 22:50:08 79° 79° (E) 504 2.5 -17.3°
Enters shadow 22:51:13 44° 158° (SSE) 691 2.8 -17.3°
